Wind_Speed
7 7 8 8 9 9 9 10 11 11 13 14 14 14 13 14 15 15 16 17 18 17 17 16 15 14 13 11 10 10 10 10 10 10 10 11 10 8 7 5 4 4 5
7 6 6 6 7 8 8 8 9 10 11 12 12 12 12 12 13 14 16 17 17 17 16 16 15 14 13 12 10 9 9 9 8 9 9 10 10 9 8 6 4 3 2
4 4 4 5 6 6 7 7 7 8 9 10 10 10 10 10 12 13 15 16 17 16 16 15 15 14 13 12 10 9 8 8 7 7 8 8 8 8 8 7 6 4 3
4 4 4 5 5 5 6 6 6 6 7 8 9 9 9 9 11 12 14 15 16 16 15 15 15 15 15 14 12 10 8 7 6 6 6 6 5 5 5 6 5 5 4
5 6 6 7 6 6 6 6 6 6 7 7 7 8 8 9 10 12 14 15 16 15 15 14 14 14 15 15 14 12 10 8 6 6 6 6 5 4 4 4 4 4 4
7 8 8 9 8 8 8 8 8 9 9 9 9 9 9 10 11 13 15 16 16 15 14 13 13 13 14 15 15 14 12 9 7 6 6 7 6 6 5 4 3 3 4
8 9 10 10 11 11 11 11 11 12 12 12 12 11 11 12 13 14 16 16 16 15 14 13 12 12 12 13 13 14 13 12 9 7 6 7 7 6 6 5 5 5 4
9 10 11 12 12 13 13 14 14 15 15 15 14 14 13 13 14 15 16 16 16 15 14 13 12 12 11 12 12 12 13 13 12 10 8 8 8 8 7 7 7 6 5
10 11 12 12 12 13 14 14 15 16 17 17 17 16 15 15 16 16 16 16 16 15 14 13 13 12 12 12 12 12 12 12 12 12 11 10 9 9 9 9 9 8 7
11 12 12 11 12 12 13 14 15 17 18 18 18 17 17 17 17 17 17 17 16 16 14 14 13 13 13 13 13 13 13 12 12 13 13 12 11 10 10 10 11 10 10
12 12 11 11 11 11 12 13 15 16 17 18 18 18 17 17 18 18 18 18 17 17 16 15 14 14 14 14 15 16 15 14 14 14 14 14 13 12 11 11 12 12 12
13 13 13 13 13 13 14 14 15 16 17 18 18 18 18 19 19 20 20 19 19 18 18 17 16 15 15 15 16 17 17 17 17 17 17 17 16 15 14 13 13 14 14
15 16 17 17 17 17 17 18 17 18 18 18 19 19 20 21 21 22 22 22 21 21 20 19 18 17 17 17 17 18 18 19 20 19 20 20 19 19 18 17 16 15 15
19 20 21 23 23 22 22 23 23 22 22 22 22 23 23 24 24 24 25 25 25 24 23 22 21 21 20 20 19 20 20 21 22 23 23 23 23 22 22 22 20 18 18
23 23 24 26 28 28 27 27 28 27 26 26 26 26 27 27 28 28 27 27 28 28 27 26 25 24 24 23 23 23 23 23 24 25 27 28 27 26 26 26 25 23 21
27 27 27 28 30 32 32 31 30 30 30 29 29 29 30 31 32 32 31 31 31 31 30 29 28 27 26 26 27 27 27 27 27 28 29 31 32 31 30 30 29 27 25
30 32 33 33 34 35 35 35 34 33 33 32 32 33 33 34 35 36 36 35 35 34 33 32 31 30 30 29 30 30 29 30 30 31 32 33 34 35 35 33 32 31 29
33 34 36 35 36 36 37 38 38 37 36 35 36 36 36 37 37 37 38 39 39 38 36 35 34 34 33 32 32 32 31 32 32 33 34 35 36 37 37 37 35 33 32
35 34 35 35 36 35 36 37 38 38 37 37 37 38 38 38 38 39 39 40 40 39 39 38 37 36 36 35 34 33 32 32 34 35 36 37 37 37 38 37 36 35 33
34 34 34 34 33 34 33 33 34 35 35 36 37 38 38 38 39 40 40 40 39 38 39 39 38 38 37 37 35 33 33 33 35 36 37 38 37 37 37 37 37 36 34
35 34 35 35 36 37 37 35 34 34 35 36 37 39 40 39 39 40 40 40 39 39 41 39 38 38 37 37 36 35 35 35 36 37 39 39 37 36 35 35 36 35 33
35 37 38 38 39 39 37 36 36 36 37 38 39 40 41 41 41 42 42 41 41 41 41 40 39 37 35 35 36 37 35 35 36 38 39 38 35 33 33 33 34 34 33
36 39 40 40 40 40 39 39 40 40 39 40 40 41 42 42 43 44 44 44 44 44 43 42 40 37 37 36 37 38 37 35 35 36 38 36 33 32 32 32 33 33 31
35 37 38 38 39 39 39 39 40 39 39 39 39 38 39 40 40 41 41 41 42 42 41 41 40 40 39 38 38 39 39 38 37 35 35 36 34 32 32 31 33 32 31
33 35 37 38 39 39 39 39 39 39 39 38 37 36 35 35 36 37 38 38 39 40 41 41 42 42 41 41 41 41 41 41 39 37 35 35 33 32 33 33 33 32 31
32 34 35 37 38 39 40 41 41 41 40 39 38 37 37 36 37 38 39 40 41 42 43 44 44 44 44 44 43 43 43 42 41 39 35 34 32 33 33 34 33 32 31
Wind_Direction
89 77 64 53 44 39 36 34 33 29 25 22 21 21 24 27 27 26 23 21 21 22 21 20 19 18 16 16 22 32 39 43 44 45 48 50 54 59 68 75 79 81 78
82 74 60 48 39 33 30 29 30 28 24 21 19 19 22 26 25 22 18 16 15 16 16 17 17 17 17 15 14 19 28 34 36 36 39 42 45 49 54 58 59 68 69
67 55 43 33 28 26 23 21 21 21 18 15 12 12 15 18 18 15 12 10 9 8 9 11 14 15 16 14 12 12 17 24 27 26 26 31 37 39 45 48 45 44 42
20 3 357 357 4 8 9 8 8 7 5 4 1 359 359 359 0 2 2 2 1 359 0 4 7 10 11 12 12 8 7 12 15 14 10 14 26 28 35 40 36 33 28
345 337 337 340 344 347 348 346 343 343 342 343 342 340 338 339 340 344 348 349 350 350 350 351 356 2 7 10 12 11 5 1 2 359 350 349 3 4 8 19 18 16 10
332 327 327 329 330 329 327 323 320 319 319 319 320 320 320 321 325 329 334 337 339 341 340 340 345 352 0 5 9 11 9 360 353 348 335 328 338 339 332 330 328 334 348
316 315 316 317 318 316 313 310 307 307 307 308 308 308 309 312 316 321 326 329 332 332 332 331 333 339 347 355 0 6 8 5 355 342 326 314 316 317 308 302 298 298 316
305 304 304 304 306 306 307 305 302 301 301 303 303 304 305 307 311 317 322 326 328 329 327 325 322 322 329 338 346 353 359 2 359 347 331 316 308 304 301 296 289 290 294
298 296 296 296 298 300 302 304 303 302 301 302 303 303 304 306 309 314 319 323 327 329 327 324 319 315 314 320 327 335 343 348 351 348 340 328 317 303 294 290 287 284 283
296 293 292 294 295 297 299 302 303 304 303 302 303 304 305 306 309 312 316 319 324 326 328 326 320 314 310 310 312 316 322 329 334 335 336 334 327 313 299 290 286 283 279
295 293 291 292 294 295 297 299 301 302 302 301 302 303 305 306 309 312 314 317 320 323 324 324 321 314 308 306 303 302 304 309 313 315 319 322 323 320 311 297 289 283 278
297 297 294 292 290 289 290 292 295 297 298 298 298 299 300 302 305 307 309 311 313 315 317 317 316 313 307 301 298 296 294 294 296 299 303 306 308 312 310 303 295 287 280
297 298 296 293 289 288 288 286 286 288 290 292 293 295 297 299 300 302 303 304 305 306 308 308 307 305 302 299 295 292 288 286 287 288 291 294 298 302 301 298 294 288 282
292 292 292 291 289 287 288 287 285 283 284 286 288 290 291 293 294 295 298 299 299 299 298 298 296 296 295 294 293 291 289 288 287 285 284 285 288 291 290 289 288 286 284
287 286 285 287 288 287 287 286 286 285 284 283 282 283 285 287 289 289 289 290 292 292 291 290 290 290 289 288 288 287 287 286 284 283 280 278 277 279 281 282 283 283 283
286 285 282 282 282 282 281 280 279 279 280 281 281 281 282 284 285 285 285 284 285 285 286 286 285 284 284 283 283 283 281 281 281 280 279 276 272 271 274 276 277 279 280
288 286 284 281 278 275 274 273 272 271 271 272 273 275 277 278 280 281 281 281 280 281 281 282 281 280 280 280 279 279 278 280 280 278 279 276 272 268 268 271 272 274 276
292 289 285 281 278 273 271 272 272 271 271 271 271 271 272 272 272 274 275 276 277 277 278 279 279 279 278 278 279 279 278 280 280 280 280 277 274 269 266 266 267 270 273
294 291 286 283 281 276 273 274 274 275 275 275 275 274 274 272 271 270 272 272 273 275 276 276 277 278 278 278 279 279 280 279 281 282 282 280 276 270 265 263 263 265 268
298 296 291 290 288 284 282 278 276 276 276 276 276 275 275 275 274 273 273 273 275 276 279 279 276 278 278 278 278 279 279 281 283 284 283 282 278 273 265 260 260 260 263
302 300 296 294 292 290 288 282 279 279 278 276 276 276 277 277 277 277 276 279 279 282 282 283 278 278 279 279 279 279 278 280 283 283 284 283 279 272 265 258 256 256 259
303 301 299 297 295 292 288 286 284 280 277 275 274 275 276 276 277 278 280 281 281 284 283 284 283 281 281 282 281 280 279 280 282 282 284 283 277 269 261 257 253 252 256
300 299 297 296 296 294 290 287 285 283 280 277 275 274 275 275 275 277 278 280 281 283 285 285 286 286 285 285 284 283 283 282 280 281 283 280 274 266 259 254 251 252 255
297 296 296 297 298 297 295 291 289 287 285 283 281 279 278 277 277 278 279 280 281 283 283 283 284 285 285 285 284 284 285 284 282 281 281 278 273 264 256 253 251 253 254
297 296 296 296 296 295 294 293 291 288 287 285 284 283 282 281 281 281 281 282 283 283 284 284 284 284 284 283 282 283 283 283 283 282 281 277 271 262 255 252 252 252 254
299 298 297 297 296 294 292 290 289 288 286 285 284 284 283 283 283 284 284 285 285 285 285 284 284 283 282 281 280 280 280 281 281 281 279 275 270 264 257 252 251 252 253
Height
5931 5931 5931 5930 5930 5929 5929 5928 5928 5928 5928 5927 5926 5925 5923 5922 5920 5919 5917 5916 5914 5912 5910 5908 5907 5905 5903 5902 5901 5900 5899 5898 5897 5896 5894 5893 5892 5892 5891 5891 5891 5891 5891
5933 5932 5932 5932 5931 5931 5930 5930 5929 5929 5928 5928 5927 5926 5925 5923 5922 5920 5918 5917 5915 5913 5912 5910 5908 5906 5904 5902 5901 5900 5899 5898 5897 5896 5895 5894 5893 5892 5892 5891 5891 5891 5891
5934 5934 5934 5933 5933 5932 5931 5931 5930 5929 5929 5928 5927 5926 5925 5924 5922 5921 5919 5918 5916 5914 5912 5910 5909 5907 5905 5903 5901 5900 5899 5898 5897 5896 5895 5894 5893 5893 5892 5892 5891 5891 5891
5935 5935 5935 5934 5934 5933 5933 5932 5931 5930 5929 5928 5927 5926 5926 5924 5923 5921 5920 5918 5916 5915 5913 5911 5909 5907 5905 5903 5902 5900 5899 5898 5897 5896 5895 5894 5893 5893 5892 5892 5892 5891 5891
5936 5936 5936 5935 5935 5934 5933 5933 5932 5931 5929 5928 5927 5926 5925 5924 5923 5922 5920 5918 5917 5915 5913 5912 5910 5908 5906 5904 5902 5900 5899 5898 5897 5896 5895 5894 5894 5893 5892 5892 5892 5891 5891
5937 5936 5936 5936 5935 5934 5934 5933 5932 5931 5930 5928 5927 5926 5925 5924 5923 5921 5920 5918 5917 5915 5914 5912 5910 5909 5907 5905 5903 5901 5900 5898 5898 5897 5895 5894 5893 5893 5892 5891 5891 5891 5890
5936 5936 5936 5935 5935 5934 5933 5933 5932 5930 5929 5928 5927 5925 5924 5923 5922 5921 5919 5918 5916 5915 5913 5912 5910 5909 5908 5906 5904 5902 5901 5899 5898 5897 5896 5894 5893 5892 5892 5891 5891 5890 5890
5935 5935 5934 5934 5934 5933 5932 5931 5931 5929 5928 5927 5926 5925 5923 5922 5921 5920 5918 5917 5915 5914 5913 5911 5910 5909 5908 5906 5905 5903 5902 5900 5898 5896 5895 5894 5893 5892 5891 5890 5890 5889 5888
5934 5933 5932 5932 5932 5931 5931 5930 5929 5928 5927 5926 5924 5923 5922 5921 5919 5918 5917 5916 5914 5913 5911 5910 5909 5907 5907 5906 5904 5903 5902 5900 5898 5897 5895 5894 5892 5891 5890 5889 5889 5888 5887
5932 5931 5931 5930 5929 5929 5928 5927 5926 5925 5924 5923 5922 5921 5920 5919 5918 5916 5915 5914 5912 5911 5910 5908 5907 5906 5905 5904 5903 5902 5901 5899 5898 5896 5895 5893 5891 5890 5889 5888 5887 5886 5885
5931 5930 5929 5928 5927 5926 5925 5924 5924 5923 5922 5921 5920 5919 5918 5916 5915 5914 5912 5911 5910 5908 5907 5906 5905 5903 5902 5901 5900 5899 5899 5898 5897 5895 5894 5892 5891 5889 5887 5886 5885 5884 5883
5929 5928 5927 5926 5925 5923 5922 5921 5920 5919 5918 5917 5916 5915 5914 5913 5912 5911 5909 5908 5907 5905 5904 5903 5902 5900 5899 5898 5897 5896 5895 5895 5894 5893 5892 5891 5889 5888 5886 5885 5883 5882 5881
5928 5926 5924 5923 5922 5921 5919 5918 5917 5916 5915 5914 5913 5912 5911 5909 5908 5907 5905 5904 5903 5902 5901 5899 5898 5897 5896 5894 5893 5892 5891 5890 5889 5888 5888 5887 5886 5885 5884 5883 5882 5880 5879
5925 5923 5920 5919 5918 5917 5915 5914 5912 5911 5910 5909 5908 5907 5906 5905 5904 5902 5900 5898 5897 5896 5896 5894 5893 5892 5891 5890 5888 5887 5886 5885 5884 5884 5883 5882 5882 5882 5881 5880 5879 5877 5876
5920 5919 5918 5915 5913 5912 5911 5909 5907 5905 5905 5904 5903 5902 5900 5899 5897 5896 5895 5893 5892 5890 5890 5888 5887 5886 5885 5884 5883 5882 5880 5879 5878 5878 5878 5877 5877 5877 5877 5876 5875 5873 5872
5914 5914 5913 5911 5907 5905 5903 5902 5900 5899 5897 5896 5895 5894 5893 5891 5890 5889 5887 5887 5885 5884 5882 5881 5881 5880 5879 5877 5876 5875 5874 5873 5872 5871 5870 5870 5870 5870 5870 5870 5869 5868 5866
5906 5905 5904 5902 5899 5895 5894 5893 5892 5891 5890 5890 5889 5887 5886 5884 5882 5880 5879 5878 5877 5875 5874 5873 5872 5872 5871 5870 5869 5867 5866 5865 5864 5862 5862 5861 5861 5861 5862 5862 5862 5862 5861
5898 5895 5893 5890 5887 5883 5882 5881 5880 5880 5880 5880 5880 5879 5878 5877 5875 5872 5870 5868 5866 5865 5865 5864 5863 5862 5861 5860 5859 5858 5857 5856 5855 5853 5852 5851 5851 5851 5852 5853 5854 5854 5854
5889 5886 5883 5879 5876 5872 5871 5871 5870 5869 5869 5869 5868 5868 5867 5866 5864 5862 5860 5857 5855 5854 5853 5852 5852 5851 5850 5849 5849 5849 5848 5846 5845 5844 5842 5841 5840 5841 5842 5843 5844 5846 5846
5881 5878 5875 5871 5867 5865 5863 5862 5861 5860 5859 5859 5857 5856 5855 5854 5853 5851 5849 5846 5844 5842 5841 5840 5840 5840 5839 5838 5838 5838 5838 5837 5836 5834 5832 5830 5829 5830 5831 5833 5835 5837 5838
5874 5871 5867 5863 5860 5858 5856 5854 5852 5851 5851 5850 5849 5847 5845 5844 5841 5839 5837 5835 5833 5832 5832 5831 5829 5829 5829 5828 5828 5828 5829 5828 5826 5825 5822 5820 5819 5819 5820 5823 5825 5828 5830
5868 5864 5860 5857 5853 5850 5848 5844 5844 5843 5842 5841 5839 5837 5835 5833 5831 5829 5826 5825 5823 5822 5822 5820 5819 5819 5819 5818 5817 5817 5818 5819 5817 5815 5812 5810 5809 5810 5811 5813 5815 5818 5821
5863 5858 5853 5849 5845 5841 5839 5836 5834 5833 5832 5831 5829 5827 5825 5823 5821 5819 5817 5815 5813 5812 5812 5811 5810 5810 5810 5809 5808 5807 5806 5807 5807 5806 5803 5800 5800 5800 5802 5804 5806 5809 5811
5856 5851 5846 5841 5837 5833 5829 5827 5824 5822 5821 5819 5818 5817 5815 5813 5811 5810 5808 5806 5805 5804 5803 5802 5801 5800 5800 5799 5798 5797 5796 5796 5796 5796 5794 5791 5791 5791 5793 5795 5798 5800 5802
5849 5844 5839 5834 5829 5825 5822 5818 5815 5813 5811 5809 5807 5806 5805 5803 5801 5800 5798 5797 5795 5794 5793 5792 5791 5790 5789 5789 5789 5788 5786 5786 5785 5785 5785 5783 5782 5783 5785 5787 5790 5792 5794
5841 5836 5831 5826 5822 5817 5813 5810 5806 5803 5801 5799 5797 5796 5795 5794 5792 5790 5788 5787 5785 5784 5782 5781 5780 5779 5779 5778 5778 5777 5776 5776 5775 5775 5775 5774 5773 5774 5777 5779 5781 5783 5785